Погода Николо-Полома

Погода Николо-Полома : погода сейчас, прогноз погоды и архив. Всё, что Вы хотите узнать о погоде Николо-Полома!

Поиск расширенной информации на нашем сайте:

Другие новости

Новости СМИ2

Главная страница сайта

Новости сайта

03.07.2017

Напоминаем, что на нашем специализированном сайте Метеоцентр.Азия вы можете получить высокодетализированные автоматические прогнозы погоды по пунктам России, СНГ и мира в авиационном формате (включающие направление и скорость ветра, видимость, явления погоды, количество и форму облачности, нижнюю и верхнюю границу облачности).

Рекомендуем: Туалетная Бумага

Погода Николо-Полома - сегодня

Время (UTC), дата Ветер
(°,м/с) 
Видим.   Явления Облачность Т
(°С)
Тd
(°С)
f(%) Тe
(°С)
Pmin
(гПа)
dP
(гПа)
Po
(мм)
O2
(г/м3)
Тmin Tmax R s Состояние
почвы
18 15.10.17 330 (СЗ) 4000 м  слаб. дождь  10/8 300 м средняя 
[Frnb|As op]
+5.6 +5.1 97 +5  996.9  0.2  734  289           
21 15.10.17 030 (СВ) 4000 м  слаб. морось{дождь}  10/10 300 м 
[St]
+5.7 +5.3 97 +5  998.1  1.2  735  289           
00 16.10.17 050 (СВ) 4000 м  дымка{дождь, морось}  10/10 300 м 
[St]
+4.5 +4.2 98 +4  1001.1  1.2  737  292           
03 16.10.17 030 (СВ) 4000 м  дымка  10/10 300 м 
[St]
+5.4 +5.1 98 +5  1004  2.8  739  291  +4.4      мокрая 
06 16.10.17 030 (СВ) 8000 м  дымка  10/10 300 м 
[Sc]
+6 +5.5 97 +6  1006.6  2.6  741  291           
09 16.10.17 360 (С) 50000 м    8/5 600 м средняя 
[Cu med, cong|Ac trans]
+7.7 +5.3 85 +8  1008.1  1.6  743  290           
12 16.10.17 020 (С) 50000 м    9/8 600 м средняя 
[Sc|Ac trans]
+8.1 +5.3 82 +8  1009.6  1.5  744  290           
15 16.10.17 330 (СЗ) 4000 м  дымка  9/9 600 м 
[Sc]
+6.7 +5.4 91 +8  1010.8  1.1  744  292    +8.1       
18 16.10.17 270 (З) 0500 м  туман  3/3 600 м 
[Sc]
+2.6 +2.4 99 +3  1010.7  -0.4  744  297           
21 16.10.17 270 (З) 4000 м  дымка{туман}  10/10 300 м 
[St]
+3.6 +3.4 99 +3  1009.4  -1.2  743  295           
00 17.10.17 220 (ЮЗ) 4000 м  дымка{туман}  10/10 300 м 
[St]
+3.9 +3.7 99 +3  1006.8  -2.6  741  294           
03 17.10.17 220 (ЮЗ) 4{10}  4000 м  дымка  10/10 300 м 
[Sc]
+3.6 +2.8 94 +2  1004.5  -2.2  740  294  +2.2        мокрая 
06 17.10.17 240 (ЮЗ) 5000 м  слаб. дождь  10/8 300 м средняя 
[Frnb|As op]
+3.3 +2.9 97 +1  1002.8  -1.7  738  293           
09 17.10.17 290 (З) 9000 м  дымка{дождь}  9/9 300 м 
[Cu hum]
+7.1 +5.1 87 +6  1002.8  0.2  739  289           
12 17.10.17 290 (З) 4{10}  50000 м  {дождь}  8/8 300 м 
[Sc]
+8.1 +3.6 73 +7  1003.6  0.9  739  289           
15 17.10.17 280 (З) 20000 м    6/6 600 м 
[Sc]
+7.2 +2.4 72 +6  1004.9  1.2  740  290    +8.8     
18 17.10.17 280 (З) 20000 м    6/6 600 м 
[Sc]
+5.8 +1.7 75 +4  1004.7  -0.2  740  292           
21 17.10.17 270 (З) 4{11}  20000 м    9/9 600 м 
[Sc]
+6 +1.7 74 +4  1004.8  0.1  740  291           
00 18.10.17 240 (ЮЗ) 10 км    8/8 600 м 
[Sc]
+4.2 +1.9 85 +3  1004.2  -0.7  740  293           
03 18.10.17 230 (ЮЗ) 10 км    10/10 600 м 
[Sc]
+4.1 +1.9 86 +3  1002.3  -1.9  738  293  +4        мокрая 
06 18.10.17 200 (Ю) 9000 м  слаб. дождь  10/8 300 м средняя 
[Frnb|As op]
+3.8 +3 94 +3  999.9  -2.3  736  292  +3.8         
09 18.10.17 210 (ЮЗ) 8000 м  слаб. морось{дождь}  10/10 300 м 
[St]
+4.9 +4.6 98 +4  997.2  -2.6  734  290           
12 18.10.17 240 (ЮЗ) 5000 м  слаб. дождь{морось}  10/8 300 м средняя 
[Frnb|As op]
+8.1 +7.6 97 +7  995  -1.9  733  285           
15 18.10.17 250 (З) 4000 м  дымка{дождь}  10/10 300 м 
[St]
+9.4 +8.9 97 +8  994.5  -0.3  733  284    +9.4     
18 18.10.17 250 (З) 4000 м  слаб. дождь  10/8 300 м средняя 
[Frnb|As op]
+9.3 +8.6 95 +8  993.7  -0.8  732  284           
Время (UTC), дата Ветер
(°,м/с) 
Видим.   Явления Облачность Т
(°С)
Тd
(°С)
f(%) Тe
(°С)
Pmin
(гПа)
dP
(гПа)
Po
(мм)
O2
(г/м3)
Тmin Tmax R s Состояние
почвы

Для получения пояснительной информации подведите курсор к названию столбца.

ПОГОДА Николо-Полома - архив

Всё, что Вы хотите узнать о погоде Николо-Полома - удобно и подробно!

Выберите нужную дату (начиная с 1 января 2015* года) и нажмите кнопку "Найти".
Будут отображены архивные сводки погоды по пункту Николо-Полома, начиная с указанной даты.


Отображать данные в формате CSV (для использования в таблицах Excel)


Внимание! Наш архив погоды предназначен исключительно для личного некоммерческого использования в познавательных целях. Если Вам необходимы официальные справки о состоянии погоды (для производственных, юридических, коммерческих и т.п. целей), обращайтесь в органы Росгидромета.

*Примечание: данная дата относится к архиву по метеостанциям СССР (Россия, СНГ, Балтия).
Архив по метеостанциям Зарубежной Европы и Азии (кроме Китая) хранится 10 дней, по другим регионам земного шара (Китай, Африка, Америка, Австралия, Океания) - 1 день.

Николо-Полома - район местоположения метеостанции


Название, широта, долгота, высота метеостанции:
Николо-Полома 58.3°ш. 43.4°д. 150 м над ур. моря [Российская Федерация]

Дополнительная информация

В oтличие oт бoльшинства пoгoдных сайтoв мы публикуем пoдрoбную метеoинфoрмацию в детальнoм прoфессиoнальнoм фoрмате.

Характеристики температуры и влажнoсти вoздуха измеряются на высoте 2 м в тени вдали oт зданий и деревьев.
Скoрoсть ветра измеряется на высoте 10 м (на урoвне рoста челoвека скoрoсть ветра ниже в 1.5-2 раза). Если метеoстанция нахoдится в гoрoде или в лесу, тo скoрoсть ветра занижена на 2-4 м/с пo сравнению с oткрытым местoм. Скoрoсть ветра над акватoриями крупных рек и oзёр, а также на вершинах хoлмoв на 2-5 м/с выше, чем в oбычных услoвиях.
Атмoсфернoе давление в разных тoчках местнoсти мoжет значительнo oтличаться oт давления на метеoстанции, в зависимoсти oт услoвий рельефа (при пoдъёме на 10 м давление пoнижается примернo на 1 мм рт.ст.).